Waarnemingen

Advertentie
Mijn weer
Cordoba Aeropuerto (AWS), Spanje (8410): temperatuur & dauwpunt: 11.12.2017 22:00:00 - 17.12.2017 22:00:00 (CET)Cordoba Aeropuerto (AWS), Spanje (8410): windsnelheid: 11.12.2017 22:00:00 - 17.12.2017 22:00:00 (CET)Cordoba Aeropuerto (AWS), Spanje (8410): windrichting: 11.12.2017 22:00:00 - 17.12.2017 22:00:00 (CET)Cordoba Aeropuerto (AWS), Spanje (8410): luchtdruk: 11.12.2017 22:00:00 - 17.12.2017 22:00:00 (CET)Cordoba Aeropuerto (AWS), Spanje (8410): zicht: 11.12.2017 22:00:00 - 17.12.2017 22:00:00 (CET)
Datum & Tijd tt [°C] td [°C] ff [km/u] ff [kn] dd ppp [hPa] vv [km]
17.12.2017 22:00:00 4,9 1,2 0 0 N 1032,4 -
17.12.2017 21:00:00 5,7 1,2 9 5 O 1032,0 -
17.12.2017 20:00:00 6,4 1,5 8 4 O 1031,2 -
17.12.2017 19:00:00 8,1 2,5 4 2 ONO 1030,3 -
17.12.2017 18:00:00 11,1 2,9 2 1 ZZO 1029,6 -
17.12.2017 17:00:00 13,2 1,4 13 7 O 1028,9 -
17.12.2017 16:00:00 13,8 2,2 8 4 O 1028,8 50
17.12.2017 15:00:00 13,3 0,9 16 9 O 1028,7 -
17.12.2017 14:00:00 13,1 1,6 16 9 O 1029,3 -
17.12.2017 13:00:00 11,7 2,5 15 8 O 1030,2 50
17.12.2017 12:00:00 10,1 1,5 21 11 ONO 1031,0 -
17.12.2017 11:00:00 8,8 2,2 9 5 ONO 1031,0 -
17.12.2017 10:00:00 6,1 2,3 8 4 ONO 1030,4 50
17.12.2017 09:00:00 2,5 1,0 0 0 N 1030,1 -
17.12.2017 08:00:00 2,4 0,8 8 4 OZO 1029,3 -
17.12.2017 07:00:00 1,7 0,7 8 4 O 1028,9 20
17.12.2017 06:00:00 2,1 0,9 11 6 ONO 1028,2 -
17.12.2017 05:00:00 2,8 0,8 9 5 O 1027,8 -
17.12.2017 04:00:00 2,7 1,2 13 7 O 1027,7 -
17.12.2017 03:00:00 3,5 1,5 15 8 O 1027,1 -
17.12.2017 02:00:00 3,6 1,3 13 7 O 1027,1 -
17.12.2017 01:00:00 4,5 1,7 13 7 ONO 1027,0 -
17.12.2017 00:00:00 4,5 1,9 8 4 ONO 1026,7 -
16.12.2017 23:00:00 5,1 1,9 8 4 O 1026,0 -
16.12.2017 22:00:00 5,3 2,1 8 4 O 1025,7 -
16.12.2017 21:00:00 6,4 2,2 8 4 ONO 1024,9 -
16.12.2017 20:00:00 7,5 2,2 8 4 OZO 1023,9 -
16.12.2017 19:00:00 9,8 1,9 9 5 N 1023,0 -
16.12.2017 18:00:00 12,0 1,5 13 7 NO 1021,9 -
16.12.2017 17:00:00 14,3 0,6 15 8 ONO 1021,3 -
16.12.2017 16:00:00 15,0 2,1 13 7 O 1020,9 50
16.12.2017 15:00:00 14,8 3,3 13 7 ONO 1020,9 -
16.12.2017 14:00:00 14,0 3,7 15 8 O 1021,4 -
16.12.2017 13:00:00 13,0 4,2 11 6 O 1022,0 50
16.12.2017 12:00:00 12,0 3,2 15 8 O 1022,3 -
16.12.2017 11:00:00 10,1 3,6 15 8 ONO 1022,2 -
16.12.2017 10:00:00 8,7 3,7 5 3 O 1021,0 50
16.12.2017 09:00:00 5,5 2,5 9 5 O 1020,1 -
16.12.2017 08:00:00 4,7 2,1 13 7 ONO 1019,2 -
16.12.2017 07:00:00 5,5 2,7 8 4 O 1018,1 -
16.12.2017 06:00:00 5,9 4,2 13 7 ONO 1016,9 -
16.12.2017 05:00:00 6,2 5,2 9 5 O 1016,5 -
16.12.2017 04:00:00 7,9 5,5 4 2 OZO 1015,9 -
16.12.2017 03:00:00 8,2 5,8 5 3 ZO 1015,3 -
16.12.2017 02:00:00 9,1 5,1 8 4 O 1015,1 -
16.12.2017 01:00:00 10,9 6,6 4 2 NNW 1015,0 -
16.12.2017 00:00:00 11,5 9,6 9 5 W 1014,7 -
15.12.2017 23:00:00 12,8 12,5 5 3 WZW 1013,9 -
15.12.2017 22:00:00 14,0 13,7 8 4 WZW 1013,0 -
15.12.2017 21:00:00 14,6 14,0 8 4 W 1013,2 -
15.12.2017 20:00:00 15,1 13,6 13 7 WZW 1013,1 -
15.12.2017 19:00:00 15,5 13,7 15 8 WZW 1013,0 -
15.12.2017 18:00:00 16,0 13,7 16 9 WZW 1013,0 -
15.12.2017 17:00:00 16,6 13,7 18 10 WZW 1012,7 -
15.12.2017 16:00:00 16,4 14,1 16 9 WZW 1013,0 12
15.12.2017 15:00:00 15,5 14,2 16 9 WZW 1013,6 -
15.12.2017 14:00:00 13,6 13,4 13 7 WZW 1015,0 -
15.12.2017 13:00:00 12,4 12,2 11 6 W 1016,1 0,9
15.12.2017 12:00:00 12,2 12,0 9 5 WZW 1017,6 -
15.12.2017 11:00:00 11,8 11,6 8 4 WZW 1018,1 -
15.12.2017 10:00:00 11,4 11,2 11 6 WZW 1018,2 -
15.12.2017 09:00:00 11,2 11,0 9 5 WZW 1017,8 -
15.12.2017 08:00:00 10,9 10,7 8 4 WZW 1017,9 -
15.12.2017 07:00:00 10,8 10,6 8 4 ZW 1017,9 -
15.12.2017 06:00:00 10,7 10,5 4 2 WZW 1018,3 -
15.12.2017 05:00:00 10,4 10,2 9 5 WZW 1018,5 -
15.12.2017 04:00:00 10,4 10,1 4 2 W 1019,6 -
15.12.2017 03:00:00 10,4 10,1 0 0 N 1019,7 -
15.12.2017 02:00:00 10,3 9,8 4 2 ZW 1019,9 -
15.12.2017 01:00:00 10,3 9,7 0 0 N 1020,7 -
15.12.2017 00:00:00 10,3 9,5 0 0 N 1021,3 -
14.12.2017 23:00:00 10,5 9,6 2 1 W 1022,3 -
14.12.2017 22:00:00 10,9 9,3 0 0 N 1022,6 -
14.12.2017 21:00:00 11,2 9,1 0 0 N 1022,9 -
14.12.2017 20:00:00 11,4 9,1 0 0 N 1023,3 -
14.12.2017 19:00:00 11,7 8,5 0 0 N 1023,2 -
14.12.2017 18:00:00 12,3 8,0 4 2 W 1023,2 -
14.12.2017 17:00:00 12,7 7,2 8 4 W 1023,2 -
14.12.2017 16:00:00 13,6 7,0 2 1 W 1023,3 15
14.12.2017 15:00:00 13,1 5,0 0 0 N 1024,1 -
14.12.2017 14:00:00 12,3 5,3 0 0 N 1025,3 -
14.12.2017 13:00:00 9,7 4,5 4 2 NO 1026,8 10
14.12.2017 12:00:00 7,5 4,1 0 0 N 1027,8 -
14.12.2017 11:00:00 6,2 4,0 8 4 O 1028,5 -
14.12.2017 10:00:00 4,7 3,9 0 0 N 1028,2 9
14.12.2017 09:00:00 2,6 2,5 0 0 N 1028,4 -
14.12.2017 08:00:00 2,0 1,9 0 0 N 1028,2 -
14.12.2017 07:00:00 1,5 1,4 0 0 N 1028,0 -
14.12.2017 06:00:00 1,6 1,5 0 0 N 1028,1 -
14.12.2017 05:00:00 1,7 1,6 0 0 N 1028,1 -
14.12.2017 04:00:00 2,1 1,8 0 0 N 1028,7 -
14.12.2017 03:00:00 2,3 2,0 0 0 N 1028,7 -
14.12.2017 02:00:00 2,7 2,4 0 0 N 1028,8 -
14.12.2017 01:00:00 3,0 2,6 0 0 N 1029,2 -
14.12.2017 00:00:00 3,6 3,0 0 0 N 1029,4 -
13.12.2017 23:00:00 4,2 3,6 0 0 N 1029,1 -
13.12.2017 22:00:00 4,7 3,8 0 0 N 1029,3 -
13.12.2017 21:00:00 5,6 4,4 0 0 N 1029,0 -
13.12.2017 20:00:00 6,5 4,3 0 0 N 1028,6 -
13.12.2017 19:00:00 8,7 5,1 0 0 N 1028,2 -
13.12.2017 18:00:00 12,3 3,6 0 0 N 1027,9 -
13.12.2017 17:00:00 14,0 1,9 0 0 N 1028,0 -
13.12.2017 16:00:00 14,7 2,2 0 0 N 1028,0 55
13.12.2017 15:00:00 - - - - - - -
13.12.2017 14:00:00 - - - - - - -
13.12.2017 13:00:00 - - - - - - 40
13.12.2017 12:00:00 8,7 3,8 15 8 O 1031,3 -
13.12.2017 11:00:00 5,9 2,5 18 10 O 1031,0 -
13.12.2017 10:00:00 - - - - - - -
13.12.2017 09:00:00 - - - - - - -
13.12.2017 08:00:00 - - - - - - -
13.12.2017 07:00:00 - - - - - - -
13.12.2017 06:00:00 - - - - - - -
13.12.2017 05:00:00 - - - - - - -
13.12.2017 04:00:00 - - - - - - -
13.12.2017 03:00:00 - - - - - - -
13.12.2017 02:00:00 - - - - - - -
13.12.2017 01:00:00 - - - - - - -
13.12.2017 00:00:00 - - - - - - -
12.12.2017 23:00:00 - - - - - - -
12.12.2017 22:00:00 - - - - - - -
12.12.2017 21:00:00 - - - - - - -
12.12.2017 20:00:00 6,2 4,2 0 0 N 1023,2 -
12.12.2017 19:00:00 8,0 4,4 0 0 N 1022,3 -
12.12.2017 18:00:00 11,5 4,0 4 2 ZZW 1021,2 -
12.12.2017 17:00:00 14,0 1,2 0 0 N 1020,3 -
12.12.2017 16:00:00 14,3 1,5 4 2 O 1019,5 50
12.12.2017 15:00:00 13,9 1,6 8 4 ZO 1018,9 -
12.12.2017 14:00:00 12,8 0,9 11 6 O 1018,9 -
12.12.2017 13:00:00 12,6 1,3 13 7 O 1019,1 50
12.12.2017 12:00:00 12,1 4,1 4 2 O 1019,1 -
12.12.2017 11:00:00 10,4 3,8 4 2 Z 1018,6 -
12.12.2017 10:00:00 7,0 5,0 0 0 N 1018,0 40
12.12.2017 09:00:00 3,5 2,9 4 2 ZZO 1017,0 -
12.12.2017 08:00:00 4,0 3,3 4 2 ZZW 1015,9 -
12.12.2017 07:00:00 7,1 3,1 5 3 NNO 1014,7 -
12.12.2017 06:00:00 5,3 3,8 0 0 N 1013,4 -
12.12.2017 05:00:00 6,2 4,7 5 3 WZW 1012,2 -
12.12.2017 04:00:00 6,2 5,8 8 4 ZZW 1011,7 -
12.12.2017 03:00:00 5,9 5,5 5 3 W 1011,0 -
12.12.2017 02:00:00 6,0 5,3 11 6 WNW 1010,4 -
12.12.2017 01:00:00 6,1 5,5 8 4 WZW 1009,8 -
12.12.2017 00:00:00 6,9 6,5 5 3 W 1009,1 -
11.12.2017 23:00:00 7,4 6,8 5 3 WZW 1008,3 -
11.12.2017 22:00:00 8,5 7,4 8 4 W 1007,3 -

tt = temperatuur
td = dauwpunt
ff = windsnelheid
dd = windrichting
ppp = luchtdruk
vv = zicht

Weerstations in de omgeving